N5NC KPGA-KLVS

Flight info

Callsign N5NC
Flight time 0h 57m
Altitude 33000
Route PGA PUMPS SAF V62 TAFOY
Aircraft C525/L-SDFGRWYZ/LB1

Departure

Time 2026-04-22 14:31
Airport Page Municipal Airport (KPGA)

Arrival

Time 2026-04-22 15:28
Airport Las Vegas Municipal Airport (KLVS)
Time Latitude Longitude Altitude Speed Heading
2026-04-22 14:24 36.92432 -111.44939 4267 ft 0 kts 354°
2026-04-22 14:28 36.92448 -111.44941 4265 ft 8 kts 353°
2026-04-22 14:29 36.92519 -111.44894 4261 ft 15 kts 351°
2026-04-22 14:29 36.92673 -111.44928 4257 ft 28 kts 348°
2026-04-22 14:29 36.92897 -111.44977 4252 ft 34 kts 349°
2026-04-22 14:29 36.93129 -111.45027 4248 ft 33 kts 350°
2026-04-22 14:30 36.93270 -111.45016 4246 ft 15 kts 81°
2026-04-22 14:30 36.93234 -111.44946 4247 ft 0 kts 170°
2026-04-22 14:30 36.93199 -111.44939 4247 ft 26 kts 169°
2026-04-22 14:30 36.92809 -111.44854 4254 ft 85 kts 168°
2026-04-22 14:31 36.92078 -111.44697 4392 ft 115 kts 169°
2026-04-22 14:31 36.91278 -111.44585 4789 ft 120 kts 175°
2026-04-22 14:31 36.90359 -111.44386 5028 ft 146 kts 155°
2026-04-22 14:31 36.89679 -111.43435 5507 ft 159 kts 110°
2026-04-22 14:32 36.89767 -111.42013 5902 ft 177 kts 69°
2026-04-22 14:32 36.90465 -111.40681 6229 ft 195 kts 55°
2026-04-22 14:32 36.91311 -111.39233 6489 ft 216 kts 56°
2026-04-22 14:32 36.92237 -111.37633 6740 ft 236 kts 55°
2026-04-22 14:33 36.93224 -111.35915 6972 ft 255 kts 55°
2026-04-22 14:33 36.94370 -111.34132 7203 ft 271 kts 53°
2026-04-22 14:33 36.95009 -111.31930 7630 ft 271 kts 89°
2026-04-22 14:33 36.94832 -111.29613 8105 ft 268 kts 109°
2026-04-22 14:34 36.94061 -111.27533 8604 ft 265 kts 124°
2026-04-22 14:34 36.93090 -111.25583 9083 ft 266 kts 129°
2026-04-22 14:34 36.92072 -111.23666 9566 ft 268 kts 129°
2026-04-22 14:34 36.91025 -111.21712 10061 ft 269 kts 130°
2026-04-22 14:35 36.89999 -111.19788 10666 ft 267 kts 130°
2026-04-22 14:35 36.88974 -111.17836 11027 ft 278 kts 127°
2026-04-22 14:35 36.88292 -111.15617 11529 ft 286 kts 112°
2026-04-22 14:35 36.87765 -111.13223 11956 ft 293 kts 110°
2026-04-22 14:36 36.87283 -111.10755 12439 ft 295 kts 109°
2026-04-22 14:36 36.86815 -111.08247 12928 ft 296 kts 108°
2026-04-22 14:36 36.86358 -111.05748 13410 ft 297 kts 108°
2026-04-22 14:36 36.85909 -111.03268 13888 ft 297 kts 109°
2026-04-22 14:37 36.85456 -111.00745 14375 ft 297 kts 109°
2026-04-22 14:37 36.85006 -110.98235 14863 ft 297 kts 109°
2026-04-22 14:37 36.84561 -110.95740 15345 ft 296 kts 109°
2026-04-22 14:37 36.84117 -110.93249 15828 ft 295 kts 109°
2026-04-22 14:38 36.83675 -110.90770 16314 ft 294 kts 109°
2026-04-22 14:38 36.83235 -110.88300 16798 ft 292 kts 109°
2026-04-22 14:38 36.82793 -110.85814 17286 ft 290 kts 109°
2026-04-22 14:38 36.82358 -110.83373 17735 ft 290 kts 109°
2026-04-22 14:39 36.81922 -110.80937 18098 ft 294 kts 109°
2026-04-22 14:39 36.81472 -110.78433 18475 ft 297 kts 109°
2026-04-22 14:39 36.81018 -110.75900 18854 ft 300 kts 109°
2026-04-22 14:40 36.80103 -110.70796 19597 ft 305 kts 109°
2026-04-22 14:40 36.79639 -110.68208 19970 ft 308 kts 108°
2026-04-22 14:40 36.79167 -110.65582 20355 ft 310 kts 109°
2026-04-22 14:40 36.78701 -110.62990 20723 ft 311 kts 108°
2026-04-22 14:41 36.78227 -110.60357 21107 ft 313 kts 108°
2026-04-22 14:41 36.77751 -110.57719 21485 ft 314 kts 108°
2026-04-22 14:41 36.77267 -110.55037 21867 ft 315 kts 109°
2026-04-22 14:41 36.76794 -110.52415 22235 ft 315 kts 108°
2026-04-22 14:42 36.76312 -110.49753 22618 ft 316 kts 108°
2026-04-22 14:42 36.75827 -110.47076 22976 ft 317 kts 108°
2026-04-22 14:42 36.75335 -110.44371 23231 ft 322 kts 108°
2026-04-22 14:42 36.74838 -110.41642 23497 ft 326 kts 108°
2026-04-22 14:43 36.74330 -110.38859 23758 ft 330 kts 108°
2026-04-22 14:43 36.73819 -110.36056 24020 ft 333 kts 108°
2026-04-22 14:43 36.73308 -110.33256 24279 ft 336 kts 108°
2026-04-22 14:43 36.72788 -110.30409 24548 ft 338 kts 108°
2026-04-22 14:44 36.72261 -110.27531 24810 ft 340 kts 108°
2026-04-22 14:44 36.71736 -110.24665 25070 ft 342 kts 108°
2026-04-22 14:44 36.71209 -110.21793 25327 ft 344 kts 108°
2026-04-22 14:44 36.70672 -110.18867 25591 ft 345 kts 108°
2026-04-22 14:45 36.70135 -110.15952 25859 ft 347 kts 108°
2026-04-22 14:45 36.69596 -110.13032 26117 ft 350 kts 108°
2026-04-22 14:45 36.69047 -110.10060 26381 ft 351 kts 107°
2026-04-22 14:45 36.68502 -110.07112 26644 ft 353 kts 107°
2026-04-22 14:46 36.67949 -110.04124 26906 ft 355 kts 107°
2026-04-22 14:46 36.67394 -110.01131 27169 ft 356 kts 107°
2026-04-22 14:46 36.66834 -109.98113 27437 ft 357 kts 107°
2026-04-22 14:46 36.66273 -109.95097 27704 ft 358 kts 107°
2026-04-22 14:47 36.65716 -109.92110 27962 ft 359 kts 107°
2026-04-22 14:47 36.65149 -109.89069 28225 ft 360 kts 107°
2026-04-22 14:47 36.64587 -109.86065 28487 ft 360 kts 107°
2026-04-22 14:47 36.64014 -109.83004 28758 ft 361 kts 107°
2026-04-22 14:48 36.63446 -109.79971 29023 ft 363 kts 107°
2026-04-22 14:48 36.62873 -109.76920 29282 ft 364 kts 107°
2026-04-22 14:48 36.62296 -109.73852 29548 ft 365 kts 107°
2026-04-22 14:48 36.61718 -109.70783 29813 ft 366 kts 106°
2026-04-22 14:49 36.61135 -109.67693 30078 ft 367 kts 106°
2026-04-22 14:49 36.60556 -109.64625 30343 ft 368 kts 106°
2026-04-22 14:49 36.59968 -109.61520 30609 ft 369 kts 106°
2026-04-22 14:49 36.59380 -109.58415 30869 ft 369 kts 105°
2026-04-22 14:50 36.58795 -109.55331 31128 ft 370 kts 105°
2026-04-22 14:50 36.58200 -109.52199 31398 ft 370 kts 106°
2026-04-22 14:50 36.57610 -109.49101 31667 ft 370 kts 105°
2026-04-22 14:50 36.57021 -109.46006 31940 ft 370 kts 105°
2026-04-22 14:51 36.56430 -109.42911 32203 ft 371 kts 105°
2026-04-22 14:51 36.55831 -109.39778 32478 ft 370 kts 105°
2026-04-22 14:51 36.55235 -109.36665 32743 ft 370 kts 105°
2026-04-22 14:51 36.54639 -109.33556 33011 ft 370 kts 106°
2026-04-22 14:52 36.54038 -109.30428 33171 ft 373 kts 105°
2026-04-22 14:52 36.53431 -109.27279 33204 ft 380 kts 105°
2026-04-22 14:52 36.52181 -109.20799 33220 ft 393 kts 105°
2026-04-22 14:53 36.50887 -109.14114 33224 ft 404 kts 105°
2026-04-22 14:53 36.49556 -109.07259 33233 ft 414 kts 105°
2026-04-22 14:54 36.48193 -109.00254 33226 ft 424 kts 105°
2026-04-22 14:54 36.46786 -108.93049 33234 ft 430 kts 105°
2026-04-22 14:55 36.45364 -108.85794 33224 ft 436 kts 105°
2026-04-22 14:55 36.43924 -108.78477 33221 ft 441 kts 105°
2026-04-22 14:56 36.42469 -108.71100 33215 ft 444 kts 105°
2026-04-22 14:56 36.40987 -108.63622 33210 ft 447 kts 105°
2026-04-22 14:57 36.39502 -108.56147 33211 ft 449 kts 105°
2026-04-22 14:57 36.37999 -108.48614 33216 ft 450 kts 105°
2026-04-22 14:58 36.36498 -108.41116 33212 ft 451 kts 105°
2026-04-22 14:58 36.34983 -108.33575 33205 ft 452 kts 106°
2026-04-22 14:59 36.33469 -108.26063 33206 ft 450 kts 106°
2026-04-22 14:59 36.31954 -108.18572 33208 ft 449 kts 107°
2026-04-22 15:00 36.30436 -108.11099 33208 ft 448 kts 107°
2026-04-22 15:00 36.28913 -108.03622 33204 ft 447 kts 106°
2026-04-22 15:01 36.27391 -107.96175 33201 ft 446 kts 107°
2026-04-22 15:01 36.25868 -107.88751 33221 ft 445 kts 107°
2026-04-22 15:02 36.24347 -107.81362 33213 ft 444 kts 107°
2026-04-22 15:02 36.22827 -107.74001 33240 ft 443 kts 107°
2026-04-22 15:03 36.20835 -107.66856 33245 ft 436 kts 119°
2026-04-22 15:03 36.18174 -107.60188 33258 ft 433 kts 121°
2026-04-22 15:04 36.15461 -107.53559 33263 ft 432 kts 121°
2026-04-22 15:04 36.12758 -107.46962 33267 ft 431 kts 122°
2026-04-22 15:05 36.10051 -107.40363 33269 ft 430 kts 121°
2026-04-22 15:05 36.07356 -107.33798 33273 ft 429 kts 122°
2026-04-22 15:06 36.04672 -107.27270 33275 ft 426 kts 122°
2026-04-22 15:06 36.01991 -107.20762 33273 ft 425 kts 122°
2026-04-22 15:07 35.99316 -107.14278 33293 ft 423 kts 122°
2026-04-22 15:07 35.96658 -107.07850 33303 ft 422 kts 122°
2026-04-22 15:08 35.93999 -107.01434 33300 ft 420 kts 122°
2026-04-22 15:08 35.91341 -106.95029 33292 ft 419 kts 122°
2026-04-22 15:09 35.88686 -106.88645 33290 ft 419 kts 122°
2026-04-22 15:09 35.86025 -106.82260 33286 ft 418 kts 122°
2026-04-22 15:10 35.83373 -106.75906 33273 ft 418 kts 122°
2026-04-22 15:10 35.80718 -106.69559 33270 ft 417 kts 122°
2026-04-22 15:11 35.78068 -106.63236 33269 ft 417 kts 122°
2026-04-22 15:11 35.75415 -106.56918 33272 ft 416 kts 122°
2026-04-22 15:12 35.72760 -106.50610 33272 ft 415 kts 122°
2026-04-22 15:12 35.70110 -106.44321 33261 ft 415 kts 122°
2026-04-22 15:13 35.67460 -106.38049 32873 ft 416 kts 122°
2026-04-22 15:13 35.66123 -106.34885 32468 ft 415 kts 123°
2026-04-22 15:13 35.64787 -106.31726 32059 ft 411 kts 123°
2026-04-22 15:14 35.63481 -106.28643 31581 ft 410 kts 123°
2026-04-22 15:14 35.62168 -106.25546 31101 ft 409 kts 123°
2026-04-22 15:14 35.60863 -106.22470 30620 ft 408 kts 123°
2026-04-22 15:14 35.59550 -106.19382 30119 ft 409 kts 123°
2026-04-22 15:15 35.58230 -106.16280 29612 ft 410 kts 123°
2026-04-22 15:15 35.56913 -106.13189 29116 ft 410 kts 123°
2026-04-22 15:15 35.55587 -106.10077 28619 ft 410 kts 122°
2026-04-22 15:15 35.54276 -106.07001 28126 ft 409 kts 123°
2026-04-22 15:16 35.52979 -106.03915 27622 ft 408 kts 122°
2026-04-22 15:16 35.51706 -106.00830 27125 ft 407 kts 121°
2026-04-22 15:16 35.50422 -105.97711 26628 ft 406 kts 121°
2026-04-22 15:16 35.49163 -105.94656 26141 ft 404 kts 121°
2026-04-22 15:17 35.47890 -105.91572 25642 ft 402 kts 121°
2026-04-22 15:17 35.46645 -105.88557 25158 ft 400 kts 121°
2026-04-22 15:17 35.45385 -105.85513 24664 ft 396 kts 121°
2026-04-22 15:17 35.44147 -105.82524 24163 ft 394 kts 121°
2026-04-22 15:18 35.42912 -105.79542 23665 ft 390 kts 121°
2026-04-22 15:18 35.41695 -105.76608 23173 ft 386 kts 121°
2026-04-22 15:18 35.40483 -105.73692 22687 ft 382 kts 121°
2026-04-22 15:18 35.39301 -105.70850 22213 ft 378 kts 121°
2026-04-22 15:19 35.38102 -105.67970 21729 ft 375 kts 121°
2026-04-22 15:19 35.36924 -105.65146 21256 ft 372 kts 121°
2026-04-22 15:19 35.35764 -105.62364 20787 ft 370 kts 121°
2026-04-22 15:19 35.34646 -105.59519 20298 ft 370 kts 114°
2026-04-22 15:20 35.34303 -105.56413 19859 ft 374 kts 89°
2026-04-22 15:20 35.34588 -105.53275 19427 ft 372 kts 82°
2026-04-22 15:20 35.35017 -105.50187 18985 ft 370 kts 80°
2026-04-22 15:20 35.35493 -105.47074 18537 ft 368 kts 79°
2026-04-22 15:21 35.35968 -105.44056 18095 ft 366 kts 79°
2026-04-22 15:21 35.36450 -105.41016 17603 ft 363 kts 79°
2026-04-22 15:21 35.36930 -105.38007 17115 ft 360 kts 79°
2026-04-22 15:21 35.37408 -105.35009 16630 ft 356 kts 79°
2026-04-22 15:22 35.38042 -105.32134 16535 ft 336 kts 69°
2026-04-22 15:22 35.39141 -105.29679 16354 ft 325 kts 54°
2026-04-22 15:22 35.40616 -105.27634 15785 ft 320 kts 43°
2026-04-22 15:22 35.42271 -105.25834 15075 ft 317 kts 38°
2026-04-22 15:23 35.43945 -105.24161 14474 ft 312 kts 37°
2026-04-22 15:23 35.45622 -105.22557 13976 ft 293 kts 36°
2026-04-22 15:23 35.47186 -105.21097 13385 ft 276 kts 36°
2026-04-22 15:23 35.48720 -105.19675 12776 ft 274 kts 36°
2026-04-22 15:24 35.50186 -105.18307 12250 ft 259 kts 35°
2026-04-22 15:24 35.51551 -105.17033 11842 ft 234 kts 34°
2026-04-22 15:24 35.52780 -105.15902 11430 ft 209 kts 33°
2026-04-22 15:24 35.53889 -105.14840 10756 ft 199 kts 35°
2026-04-22 15:25 35.54932 -105.13803 10094 ft 191 kts 35°
2026-04-22 15:25 35.55885 -105.12847 9600 ft 167 kts 34°
2026-04-22 15:25 35.56735 -105.11976 9139 ft 155 kts 36°
2026-04-22 15:25 35.57529 -105.11163 8694 ft 146 kts 32°
2026-04-22 15:26 35.58403 -105.10629 8370 ft 136 kts 13°
2026-04-22 15:26 35.59308 -105.10493 8110 ft 127 kts 353°
2026-04-22 15:26 35.60155 -105.10706 7910 ft 120 kts 338°
2026-04-22 15:26 35.60902 -105.11102 7763 ft 116 kts 329°
2026-04-22 15:27 35.61596 -105.11601 7600 ft 116 kts 326°
2026-04-22 15:27 35.62292 -105.12103 7436 ft 116 kts 327°
2026-04-22 15:27 35.63000 -105.12597 7271 ft 116 kts 330°
2026-04-22 15:27 35.63707 -105.13077 7100 ft 117 kts 329°
2026-04-22 15:28 35.64425 -105.13557 6913 ft 117 kts 331°
2026-04-22 15:28 35.65095 -105.13999 6864 ft 96 kts 331°
2026-04-22 15:28 35.65449 -105.14233 6858 ft 16 kts 334°
2026-04-22 15:28 35.65446 -105.14295 6858 ft 10 kts 208°
2026-04-22 15:29 35.65378 -105.14353 6859 ft 13 kts 215°
2026-04-22 15:29 35.65294 -105.14425 6860 ft 15 kts 215°
2026-04-22 15:29 35.65198 -105.14507 6861 ft 17 kts 215°
2026-04-22 15:30 35.65218 -105.14731 6858 ft 14 kts 269°
2026-04-22 15:30 35.65235 -105.14733 6858 ft 0 kts 90°